SCP
0 0 0 0 0 0 0 0 0 0 0 0 0 0 0 0 0 0 0 0 0 0 0 0 0 0 0 0 0 0 0 0 0 0 0 0 0 0 0 0 0 0 0 0 0 0 0 0 0
0 0 0 0 0 0 0 0 0 0 0 0 0 0 0 0 0 0 0 0 0 0 0 1 1 0 0 0 0 0 0 0 0 0 0 0 0 0 0 0 0 0 0 0 0 0 0 0 0
0 0 0 0 0 0 0 0 0 0 0 0 0 0 0 0 0 0 0 0 0 0 1 1 1 1 0 0 0 0 0 0 0 0 0 0 0 0 0 1 1 1 0 0 0 0 0 0 0
0 0 0 0 0 0 0 0 0 0 0 0 0 0 0 0 0 0 0 0 0 0 1 2 1 1 1 0 0 0 0 1 1 1 1 1 0 0 1 1 1 1 1 1 1 1 0 0 0
0 0 0 0 0 0 0 0 0 0 0 0 0 0 0 0 0 0 0 0 0 0 1 2 2 1 1 1 1 1 1 1 1 1 1 1 1 1 1 1 1 1 1 1 1 1 1 1 1
0 0 0 0 0 0 0 0 0 0 0 0 0 0 0 0 0 0 0 0 0 0 1 1 1 1 1 1 1 1 1 1 1 1 1 1 1 1 1 1 1 1 1 1 1 1 1 1 1
0 0 0 0 0 0 0 0 0 0 0 0 0 0 0 0 0 0 0 0 0 0 1 1 1 1 1 1 1 1 1 1 1 1 1 1 1 1 1 1 1 1 1 1 1 1 1 1 1
0 0 0 0 0 0 0 0 0 0 0 0 0 0 0 0 0 0 0 0 0 0 0 1 1 1 1 1 1 1 1 1 1 1 1 1 1 1 1 1 1 1 1 1 1 1 1 1 1
0 0 0 0 0 0 0 0 0 0 0 0 0 0 0 0 0 0 0 0 0 0 0 0 0 0 1 1 1 1 1 1 1 1 1 1 1 1 1 1 1 1 1 1 1 1 1 1 1
0 0 0 0 0 0 0 0 0 0 0 0 0 0 0 0 0 0 0 0 0 0 0 0 0 0 0 1 1 1 1 1 1 1 1 1 0 0 1 1 1 1 1 1 1 1 1 1 1
0 0 0 0 0 0 0 0 0 0 0 0 0 0 0 0 0 0 0 0 0 0 0 0 0 0 0 1 1 1 1 1 1 1 1 1 1 1 1 1 1 1 1 1 1 1 1 1 1
0 0 0 0 0 0 0 0 0 0 0 0 0 0 0 0 0 0 0 0 0 0 0 0 0 0 0 1 1 1 1 1 1 1 1 1 1 1 1 1 1 1 1 0 0 0 0 0 0
0 0 0 0 0 0 0 0 0 0 0 0 0 0 0 0 0 0 0 0 0 0 0 0 0 0 0 1 1 1 1 1 1 1 1 1 1 1 1 1 1 1 1 0 0 0 0 0 0
0 0 0 0 0 0 0 0 0 0 0 0 0 0 0 0 0 0 0 0 0 0 0 0 0 0 0 0 0 1 1 1 1 1 1 1 1 1 1 1 1 1 0 0 0 0 0 0 0
0 0 0 0 0 0 0 0 0 0 0 0 0 0 0 0 0 0 0 0 0 0 0 0 0 0 0 0 0 0 0 1 1 1 1 1 1 1 1 1 1 1 0 0 0 0 1 1 1
0 0 0 0 0 0 0 0 0 0 0 0 0 0 0 0 0 0 0 0 0 0 0 0 0 0 0 0 0 0 0 0 0 0 0 1 1 1 1 1 1 1 0 0 0 0 1 1 1
0 0 0 0 0 0 0 0 0 0 0 0 0 0 0 0 0 0 0 0 0 0 0 0 0 0 0 0 0 0 0 0 0 0 0 0 0 1 1 1 1 1 0 0 0 0 1 1 1
0 0 0 0 0 0 0 0 0 0 0 0 0 0 0 0 0 0 0 0 0 0 0 0 0 0 0 0 0 0 0 0 0 0 0 0 0 0 1 1 1 1 0 0 0 1 1 1 1
0 0 0 0 0 0 0 0 0 0 0 0 0 0 0 0 0 0 0 0 0 0 0 0 0 0 0 0 0 0 0 0 0 0 0 0 0 0 0 0 0 0 0 0 0 1 1 1 0
0 0 0 0 0 0 0 0 0 0 0 0 0 0 0 0 0 0 0 0 0 0 0 0 0 0 0 0 0 0 0 0 0 0 0 0 0 0 0 0 0 0 0 0 0 0 0 0 0
0 0 0 0 0 0 0 0 0 0 0 0 0 0 0 0 0 0 0 0 0 0 0 0 0 0 0 0 0 0 0 0 0 0 0 0 0 0 0 0 0 0 0 0 0 0 0 0 0
0 0 0 0 0 0 0 0 0 0 0 0 0 0 0 0 0 0 0 -0 -0 -0 -0 -0 -0 0 0 0 0 0 0 0 0 0 0 0 0 0 0 0 0 0 0 0 0 0 0 0 0
0 0 0 0 0 0 0 0 0 0 0 0 0 0 0 0 0 0 0 -0 -0 0 0 0 0 0 0 0 0 0 0 0 0 0 0 0 0 0 0 0 0 0 0 0 0 0 0 0 0
0 0 0 0 0 0 0 0 0 0 0 0 0 0 0 0 0 0 0 -0 0 0 0 0 0 0 0 0 0 0 0 0 0 0 0 0 0 0 0 0 0 0 0 0 0 0 0 0 0
0 0 0 0 0 0 0 0 0 0 0 0 0 0 0 0 0 0 0 0 0 0 0 0 0 0 0 0 0 0 0 0 0 0 0 0 0 0 0 0 0 0 0 0 0 0 0 0 0
0 0 0 0 0 0 0 0 0 0 0 0 0 0 0 0 0 0 0 0 0 0 0 0 0 0 0 0 0 0 0 0 0 0 0 0 0 0 0 0 0 0 0 0 0 0 0 0 0
0 0 0 0 0 0 0 0 0 0 0 0 0 0 0 0 0 0 0 0 0 0 0 0 0 0 0 0 0 0 0 0 0 0 0 0 0 0 0 0 0 0 0 0 0 0 0 0 0
0 0 0 0 0 0 0 0 0 0 0 0 0 0 0 0 0 0 0 0 0 0 0 0 0 0 0 0 0 0 0 0 0 0 0 0 0 0 0 0 0 0 0 0 0 0 0 0 0
0 0 0 0 0 0 0 0 0 0 0 0 0 0 0 0 0 0 0 0 0 0 0 0 0 0 0 0 0 0 0 0 0 0 0 0 0 0 0 0 0 0 0 0 0 0 0 0 0
0 0 0 0 0 0 0 0 0 0 0 0 0 0 0 0 0 0 0 0 0 0 0 0 0 0 0 0 0 0 0 0 0 0 0 0 0 0 0 0 0 0 0 0 0 0 0 0 0
Wind_Speed
11 12 7 2 3 5 9 2 5 5 4 8 6 4 5 6 7 5 4 4 5 9 12 10 10 9 9 8 8 7 6 5 5 3 2 1 1 1 2 3 4 6 6 6 5 4 4 4 3
9 10 4 3 4 6 4 6 3 7 7 3 0 2 3 6 8 9 5 4 4 8 11 12 12 10 9 8 8 7 7 6 4 3 2 1 1 1 3 4 3 4 5 5 4 4 4 4 3
10 11 4 3 5 4 7 8 8 5 3 1 2 0 3 5 5 6 5 5 4 7 8 12 15 11 9 9 9 8 7 6 5 4 4 3 2 2 3 2 0 1 1 2 2 2 3 3 3
7 4 4 4 11 4 6 7 7 5 2 2 3 4 5 5 5 6 5 3 3 8 11 14 14 12 11 10 9 9 8 7 6 6 4 4 3 2 2 1 3 3 2 1 1 2 2 3 4
4 3 5 7 9 3 4 7 3 5 3 1 3 6 3 5 9 8 5 2 2 3 12 14 13 12 11 10 9 9 8 7 8 6 4 5 5 4 2 0 2 2 2 1 1 2 3 4 4
3 3 5 6 4 4 4 7 4 5 5 3 2 5 5 7 9 6 3 1 2 4 9 13 13 12 10 9 9 8 8 8 8 7 6 5 6 6 5 4 4 4 3 2 2 3 4 4 5
3 4 6 7 5 4 7 7 7 8 9 8 6 7 5 8 7 3 3 2 4 5 3 7 10 10 10 9 9 8 7 7 7 7 7 6 6 6 7 5 4 5 4 3 1 2 4 4 4
4 4 6 3 3 4 6 4 4 5 6 5 2 4 2 5 4 3 3 2 3 3 2 2 4 9 11 10 12 10 7 6 6 7 7 4 3 4 6 5 5 4 3 3 2 1 3 3 4
3 3 5 5 6 6 7 6 7 5 4 5 3 3 3 7 4 1 2 3 5 5 4 3 5 4 1 5 11 10 8 7 6 6 7 5 4 5 6 8 7 6 4 3 4 4 2 2 5
3 3 4 5 5 7 8 7 8 5 7 9 9 12 10 4 1 2 4 5 1 4 6 5 5 5 5 2 5 5 6 6 6 6 8 6 6 6 5 7 8 7 6 7 9 9 7 5 5
4 4 6 5 5 6 7 8 8 8 8 7 9 10 10 8 8 5 3 4 6 7 8 6 5 4 5 3 2 1 1 3 6 8 7 6 5 3 3 4 5 6 7 5 7 8 5 6 6
3 7 7 4 5 4 6 7 8 7 5 7 7 7 8 11 11 10 8 8 7 8 7 6 5 4 4 4 3 3 2 1 1 2 1 1 1 1 1 2 2 3 3 4 4 3 6 7 7
6 6 5 4 4 4 5 7 7 5 8 11 15 18 20 18 15 13 10 8 7 5 6 5 4 5 4 3 2 2 3 1 2 1 2 2 1 2 2 2 1 1 1 1 2 4 5 5 5
6 8 8 8 3 4 6 8 4 9 12 17 20 20 19 19 20 18 16 11 10 8 7 6 7 7 5 3 1 2 2 1 2 1 2 3 2 2 1 1 1 1 2 2 3 5 5 5 5
5 9 9 1 3 3 5 7 10 9 15 18 16 15 17 18 18 18 18 15 13 11 10 7 6 6 8 6 4 3 3 3 2 2 2 3 3 3 2 2 2 3 3 3 4 5 4 3 2
7 6 3 5 2 3 5 5 9 11 17 16 13 12 13 16 17 16 18 18 18 16 15 12 8 6 7 7 5 4 4 4 3 2 2 4 4 2 2 3 4 4 3 3 4 4 4 4 3
3 6 6 3 4 4 4 4 8 11 15 13 11 11 12 14 17 17 18 19 19 19 19 17 14 10 7 7 6 5 5 4 3 3 2 3 4 4 3 3 4 4 4 3 4 4 3 3 3
10 9 9 8 5 6 4 3 9 10 14 12 10 10 11 14 15 13 16 16 17 18 18 18 17 15 11 7 5 5 4 4 4 3 3 3 3 5 4 3 4 3 2 3 3 4 3 2 2
7 8 9 6 4 3 4 1 10 10 11 10 9 9 10 11 11 12 13 14 15 17 19 19 18 17 14 9 6 5 5 4 4 4 4 4 4 5 3 2 3 2 1 3 4 2 3 2 1
8 9 7 5 7 10 8 2 12 11 11 9 8 8 9 9 10 11 12 12 11 12 13 15 16 16 15 11 10 7 6 4 5 3 2 3 5 5 3 3 2 2 1 2 3 1 1 1 1
9 5 6 9 12 9 8 3 12 11 10 9 9 7 7 9 10 10 9 9 8 8 8 10 11 13 15 15 11 10 7 5 4 4 3 4 5 5 3 3 3 2 0 1 3 1 1 2 2
7 9 10 11 8 5 5 2 10 10 9 9 7 7 7 8 8 9 9 8 8 7 7 8 9 9 11 13 14 17 13 9 7 5 5 6 6 5 3 3 3 2 1 2 3 1 1 2 1
6 11 15 15 9 7 6 6 7 10 7 8 7 8 8 8 9 10 9 8 8 8 8 8 9 8 9 11 13 15 15 13 10 8 7 6 6 5 4 2 2 2 1 2 2 2 2 1 1
7 12 16 8 2 4 4 5 5 4 6 6 8 9 10 10 11 11 10 9 9 9 10 10 10 8 7 8 9 12 16 17 17 13 10 6 3 3 4 3 2 1 1 1 2 2 1 0 0
10 8 6 5 1 2 5 2 7 4 6 9 10 11 11 12 12 12 13 12 12 12 11 10 11 9 7 8 9 10 13 16 18 15 10 7 3 3 5 4 3 2 1 1 2 2 2 1 1
8 6 5 5 5 8 9 2 7 4 8 9 10 11 13 14 13 13 12 11 11 12 12 11 11 10 7 8 10 10 13 12 14 16 12 6 2 2 2 5 4 2 3 3 2 1 2 2 1
6 6 3 4 8 7 2 7 4 3 8 10 12 13 13 13 14 14 14 13 14 15 15 13 12 10 8 9 10 12 14 16 18 19 15 5 3 4 5 5 5 4 3 3 2 2 3 3 2
2 2 4 4 6 7 8 1 6 6 9 12 13 13 14 15 15 15 14 15 15 17 16 16 14 10 9 9 10 13 15 17 19 19 16 7 6 7 6 4 4 3 3 3 3 2 3 4 3
5 2 3 4 5 5 6 2 8 10 11 12 13 14 15 16 15 14 15 15 16 18 18 17 15 12 11 11 12 13 14 16 17 18 17 7 5 8 8 6 2 1 2 3 3 2 3 3 4
1 3 4 3 6 6 7 5 9 12 10 11 13 16 19 19 15 15 17 17 16 18 17 16 14 13 13 13 13 14 15 16 16 17 16 6 2 6 7 7 5 4 4 3 3 4 5 4 4
Wind_Direction
292 267 255 274 254 236 250 81 62 74 53 46 33 355 336 39 42 83 170 102 107 116 127 154 168 177 183 187 190 187 183 179 180 181 179 40 1 291 291 263 241 231 225 220 224 241 238 238 245
292 294 295 245 254 256 221 108 103 68 63 38 62 301 307 79 82 114 126 86 98 114 137 157 165 176 184 189 191 191 192 198 198 200 210 195 35 343 316 301 254 237 227 227 237 258 260 252 239
267 272 273 256 256 314 53 64 56 43 82 342 320 144 26 52 69 93 95 120 155 131 126 141 154 169 182 192 195 196 200 197 207 223 241 227 242 311 309 324 170 178 228 229 245 270 277 268 259
276 271 239 248 277 22 29 59 46 331 125 144 332 317 115 86 67 82 99 134 202 147 121 133 152 167 182 192 197 200 204 201 214 218 233 234 233 261 341 47 103 102 100 128 252 286 275 268 257
245 266 254 260 266 39 38 47 23 300 305 104 54 314 73 91 91 86 79 72 328 84 119 138 154 170 184 194 200 205 208 211 223 212 222 227 222 240 253 217 141 128 128 162 253 284 279 273 265
263 258 276 284 333 58 52 49 336 335 342 7 47 338 68 108 99 89 80 28 80 70 115 140 158 172 187 199 208 213 214 218 229 217 217 220 217 227 229 231 211 190 176 188 253 277 279 281 276
279 285 281 305 334 356 46 21 15 4 344 31 21 336 70 76 83 106 100 42 55 54 77 143 160 174 186 199 210 217 221 226 230 218 222 237 236 231 232 219 221 216 211 198 240 310 285 283 279
318 290 271 276 356 22 55 10 28 12 340 333 360 320 33 109 96 69 73 52 61 67 47 11 187 177 178 190 201 198 208 227 228 219 222 224 228 230 229 207 208 193 185 188 190 282 310 288 277
278 271 295 6 16 8 25 7 347 335 296 298 281 289 48 95 71 9 289 216 193 176 133 70 346 5 183 188 175 184 192 211 222 216 211 197 227 226 211 214 176 156 161 204 224 221 234 285 261
230 278 330 25 358 354 349 338 322 323 330 329 354 12 35 37 15 289 287 286 250 113 73 47 17 2 341 338 140 179 186 188 204 216 195 200 219 229 208 153 159 181 209 228 239 239 236 234 241
235 269 320 342 14 3 331 325 331 339 326 351 24 9 357 353 344 326 319 336 61 68 59 36 21 3 353 346 33 341 206 176 202 226 197 194 207 207 168 159 180 201 215 226 237 232 231 227 228
268 288 296 326 1 331 316 321 317 311 332 31 33 11 9 13 8 0 19 27 48 67 68 36 6 20 13 5 61 336 305 236 257 274 258 210 203 220 220 216 213 203 201 212 221 211 226 224 226
267 269 306 323 318 321 329 308 302 352 41 37 40 37 32 26 15 6 17 18 21 44 77 62 9 11 24 18 68 279 290 287 259 239 307 292 260 238 232 222 207 219 259 273 244 246 246 242 245
324 327 303 284 312 31 333 308 352 31 46 54 53 47 38 31 23 16 10 11 7 16 35 41 24 7 2 339 319 256 280 254 282 284 250 259 249 258 241 238 217 240 247 255 265 263 255 235 224
300 283 277 194 75 61 317 33 42 51 63 59 55 50 43 35 29 23 15 11 8 5 8 13 17 3 340 337 348 338 315 299 297 293 292 287 243 225 243 241 234 232 232 250 262 271 275 280 269
244 260 243 111 72 56 326 55 55 65 69 61 51 47 47 37 30 25 23 18 13 8 3 358 356 352 338 333 334 330 319 326 330 311 310 306 297 245 223 230 233 228 220 231 244 253 265 268 276
271 326 3 87 99 36 353 67 78 72 76 67 53 43 41 38 30 25 24 22 18 12 6 358 351 345 333 324 320 304 297 316 314 299 288 288 298 287 254 238 238 229 217 231 252 255 247 251 256
351 340 340 325 55 24 349 68 96 74 76 67 55 42 35 37 31 23 22 21 19 13 8 2 354 347 339 329 322 317 312 302 288 285 281 281 293 285 264 262 255 247 236 246 260 275 279 257 263
322 308 300 309 94 5 305 320 110 86 73 65 53 46 34 31 29 24 22 19 18 13 7 2 356 350 345 338 329 316 302 289 271 251 255 269 270 277 268 274 286 277 272 259 248 254 288 284 350
298 293 311 351 356 328 281 206 113 93 81 69 57 46 35 20 21 20 20 15 17 15 5 358 355 348 343 336 326 307 293 289 291 284 280 296 286 278 268 253 259 248 232 321 297 259 253 241 190
327 3 350 319 316 278 261 183 122 107 93 77 62 47 37 22 14 11 11 7 4 8 359 350 348 349 345 338 331 327 313 297 287 280 259 256 263 261 261 281 288 297 125 298 293 294 261 260 236
321 360 324 300 307 304 326 279 149 129 100 71 50 35 27 23 9 2 357 356 353 351 341 337 341 346 347 345 344 338 326 310 289 266 233 216 229 236 227 254 290 307 309 294 285 255 59 63 358
309 310 286 274 267 275 259 255 168 137 96 59 38 26 15 13 4 355 347 345 341 336 333 337 339 342 346 349 346 338 329 321 313 307 289 237 207 209 202 203 276 292 300 304 329 21 45 57 19
312 297 287 260 203 280 254 202 91 71 61 44 31 21 10 6 359 347 340 341 337 337 336 334 328 327 335 340 338 333 327 321 315 307 298 275 231 195 180 179 222 256 354 15 15 5 349 247 334
354 343 347 3 231 190 0 297 94 105 63 41 28 15 6 359 351 344 344 342 333 326 323 320 316 315 326 336 334 328 322 317 309 298 288 278 252 213 184 167 185 212 191 122 23 356 339 297 235
332 341 10 325 303 313 303 103 129 127 58 38 23 12 3 354 345 338 334 328 323 324 323 320 318 316 332 340 336 333 327 319 309 299 287 280 300 301 188 143 118 74 60 57 38 2 320 313 285
356 13 0 289 276 270 237 108 181 105 42 28 16 8 356 346 341 338 336 334 334 334 328 327 325 327 342 346 343 335 331 322 312 303 289 255 130 72 38 50 69 62 54 45 37 32 340 342 350
44 305 305 297 309 300 296 56 114 42 26 18 9 359 350 347 343 341 340 340 341 340 335 335 330 335 344 351 346 333 326 319 316 311 294 252 154 129 111 61 40 46 49 44 43 23 360 357 341
345 331 339 309 281 282 296 40 100 57 31 13 1 354 348 344 341 343 345 342 344 341 333 329 331 340 349 353 342 329 321 318 316 313 305 270 156 134 131 128 137 115 78 58 49 29 13 345 314
337 3 8 323 301 321 309 289 93 44 30 10 356 352 350 344 343 348 345 340 343 338 332 332 342 353 354 346 336 330 326 323 321 316 312 310 105 116 125 132 143 132 99 75 70 64 53 41 26